This is the latest recevied weather packets stored in our database for station/object WD8INF-9. If no packets are shown the sender has not sent any weather packets the latest 10 day(s).
| Time | Temp. | Humidity | Pressure | Rain* | Wind** | Luminosity | Snow |
|---|---|---|---|---|---|---|---|
| 1777850734 | 16.11° C | - | 1011.5 hPa | 0 mm | - | - | - |
| 1777850433 | 16.11° C | - | 1011.5 hPa | 0 mm | - | - | - |
| 1777850133 | 16.11° C | - | 1011.9 hPa | 0 mm | - | - | - |
| 1777849832 | 16.11° C | - | 1011.8 hPa | 0 mm | - | - | - |
| 1777849231 | 16.11° C | - | 1011.6 hPa | 0 mm | - | - | - |
| 1777848931 | 16.67° C | - | 1012.2 hPa | 0 mm | - | - | - |
| 1777848630 | 17.22° C | - | 1011.9 hPa | 0 mm | - | - | - |
| 1777848330 | 17.22° C | - | 1012.1 hPa | 0 mm | - | - | - |
| 1777848029 | 17.22° C | - | 1011.8 hPa | 0 mm | - | - | - |
| 1777847729 | 17.22° C | - | 1012.3 hPa | 0 mm | - | - | - |
| 1777847428 | 17.22° C | - | 1012.4 hPa | 0 mm | - | - | - |
| 1777847127 | 17.78° C | - | 1012.4 hPa | 0 mm | - | - | - |
| 1777846827 | 17.78° C | - | 1012.5 hPa | 0 mm | - | - | - |
| 1777846527 | 18.33° C | - | 1012.3 hPa | 0 mm | - | - | - |
| 1777846226 | 20.56° C | - | 1012.6 hPa | 0 mm | - | - | - |
| 1777845926 | 18.33° C | - | 1012.2 hPa | 0 mm | - | - | - |
| 1777845625 | 17.22° C | - | 1012.5 hPa | 0 mm | - | - | - |
| 1777845324 | 17.22° C | - | 1012.4 hPa | 0 mm | - | - | - |
| 1777845023 | 17.22° C | - | 1012.5 hPa | 0 mm | - | - | - |
| 1777844723 | 17.78° C | - | 1012.3 hPa | 0 mm | - | - | - |
| 1777844423 | 17.78° C | - | 1012.7 hPa | 0 mm | - | - | - |
| 1777844122 | 17.22° C | - | 1012.6 hPa | 0 mm | - | - | - |
| 1777843822 | 17.22° C | - | 1012.8 hPa | 0 mm | - | - | - |
| 1777843521 | 17.22° C | - | 1012.8 hPa | 0 mm | - | - | - |
| 1777843221 | 16.11° C | - | 1012.9 hPa | 0 mm | - | - | - |
* Rain since midnight (hover to see other rain measurements)
** Current wind speed in m/s (hover to see current wind gust speed)